Location: Austin
(30.3000°N, 97.7500°W)
Time: 12:07:11
(UTC-05:00)

Cosmos 1844 Rocket - Pass Details

Date: 26 May 2023
Orbit: 823 x 845 km, 71.0° (Epoch: 30 May)

Event Time Altitude Azimuth Distance (km) Brightness Sun altitude
Rises 21:18:48 0° 343° (NNW) 3,406 6.7 -11.0°
Reaches altitude 10° 21:21:16 10° 345° (NNW) 2,468 5.9 -11.5°
Maximum altitude 21:26:55 71° 69° (ENE) 890 2.7 -12.5°
Enters shadow 21:31:43 15° 153° (SSE) 2,146 4.3 -13.3°
